Index of /20260504/WXO-DD/model_caps/3km/12/017
Name Last modified Size Description
Parent Directory -
20260504T12Z_MSC_CAPS_AbsoluteVorticity_IsbL-0250_RLatLon0.03_PT017H.grib2 2026-05-04 18:15 1.1M
20260504T12Z_MSC_CAPS_AbsoluteVorticity_IsbL-0500_RLatLon0.03_PT017H.grib2 2026-05-04 18:15 1.1M
20260504T12Z_MSC_CAPS_AbsoluteVorticity_IsbL-0700_RLatLon0.03_PT017H.grib2 2026-05-04 18:15 1.1M
20260504T12Z_MSC_CAPS_AbsoluteVorticity_IsbL-0850_RLatLon0.03_PT017H.grib2 2026-05-04 18:15 1.2M
20260504T12Z_MSC_CAPS_AbsoluteVorticity_IsbL-1000_RLatLon0.03_PT017H.grib2 2026-05-04 18:15 1.4M
20260504T12Z_MSC_CAPS_AirDensity_AGL-120m_RLatLon0.03_PT017H.grib2 2026-05-04 18:15 1.4M
20260504T12Z_MSC_CAPS_AirDensity_AGL-40m_RLatLon0.03_PT017H.grib2 2026-05-04 18:15 1.4M
20260504T12Z_MSC_CAPS_AirDensity_AGL-80m_RLatLon0.03_PT017H.grib2 2026-05-04 18:15 1.4M
20260504T12Z_MSC_CAPS_AirTemp_AGL-120m_RLatLon0.03_PT017H.grib2 2026-05-04 18:15 1.4M
20260504T12Z_MSC_CAPS_AirTemp_AGL-2m_RLatLon0.03_PT017H.grib2 2026-05-04 18:15 1.7M
20260504T12Z_MSC_CAPS_AirTemp_AGL-40m_RLatLon0.03_PT017H.grib2 2026-05-04 18:15 1.5M
20260504T12Z_MSC_CAPS_AirTemp_AGL-80m_RLatLon0.03_PT017H.grib2 2026-05-04 18:15 1.4M
20260504T12Z_MSC_CAPS_AirTemp_IsbL-0050_RLatLon0.03_PT017H.grib2 2026-05-04 18:15 689K
20260504T12Z_MSC_CAPS_AirTemp_IsbL-0100_RLatLon0.03_PT017H.grib2 2026-05-04 18:15 962K
20260504T12Z_MSC_CAPS_AirTemp_IsbL-0150_RLatLon0.03_PT017H.grib2 2026-05-04 18:15 747K
20260504T12Z_MSC_CAPS_AirTemp_IsbL-0175_RLatLon0.03_PT017H.grib2 2026-05-04 18:15 767K
20260504T12Z_MSC_CAPS_AirTemp_IsbL-0200_RLatLon0.03_PT017H.grib2 2026-05-04 18:15 788K
20260504T12Z_MSC_CAPS_AirTemp_IsbL-0225_RLatLon0.03_PT017H.grib2 2026-05-04 18:15 789K
20260504T12Z_MSC_CAPS_AirTemp_IsbL-0250_RLatLon0.03_PT017H.grib2 2026-05-04 18:15 1.0M
20260504T12Z_MSC_CAPS_AirTemp_IsbL-0275_RLatLon0.03_PT017H.grib2 2026-05-04 18:15 1.0M
20260504T12Z_MSC_CAPS_AirTemp_IsbL-0300_RLatLon0.03_PT017H.grib2 2026-05-04 18:15 1.0M
20260504T12Z_MSC_CAPS_AirTemp_IsbL-0350_RLatLon0.03_PT017H.grib2 2026-05-04 18:15 751K
20260504T12Z_MSC_CAPS_AirTemp_IsbL-0400_RLatLon0.03_PT017H.grib2 2026-05-04 18:15 759K
20260504T12Z_MSC_CAPS_AirTemp_IsbL-0450_RLatLon0.03_PT017H.grib2 2026-05-04 18:15 773K
20260504T12Z_MSC_CAPS_AirTemp_IsbL-0500_RLatLon0.03_PT017H.grib2 2026-05-04 18:15 788K
20260504T12Z_MSC_CAPS_AirTemp_IsbL-0550_RLatLon0.03_PT017H.grib2 2026-05-04 18:15 959K
20260504T12Z_MSC_CAPS_AirTemp_IsbL-0600_RLatLon0.03_PT017H.grib2 2026-05-04 18:15 1.0M
20260504T12Z_MSC_CAPS_AirTemp_IsbL-0650_RLatLon0.03_PT017H.grib2 2026-05-04 18:15 1.0M
20260504T12Z_MSC_CAPS_AirTemp_IsbL-0700_RLatLon0.03_PT017H.grib2 2026-05-04 18:15 937K
20260504T12Z_MSC_CAPS_AirTemp_IsbL-0750_RLatLon0.03_PT017H.grib2 2026-05-04 18:15 968K
20260504T12Z_MSC_CAPS_AirTemp_IsbL-0800_RLatLon0.03_PT017H.grib2 2026-05-04 18:15 1.0M
20260504T12Z_MSC_CAPS_AirTemp_IsbL-0850_RLatLon0.03_PT017H.grib2 2026-05-04 18:15 1.0M
20260504T12Z_MSC_CAPS_AirTemp_IsbL-0875_RLatLon0.03_PT017H.grib2 2026-05-04 18:15 1.0M
20260504T12Z_MSC_CAPS_AirTemp_IsbL-0900_RLatLon0.03_PT017H.grib2 2026-05-04 18:15 1.0M
20260504T12Z_MSC_CAPS_AirTemp_IsbL-0925_RLatLon0.03_PT017H.grib2 2026-05-04 18:15 1.0M
20260504T12Z_MSC_CAPS_AirTemp_IsbL-0950_RLatLon0.03_PT017H.grib2 2026-05-04 18:15 1.1M
20260504T12Z_MSC_CAPS_AirTemp_IsbL-0970_RLatLon0.03_PT017H.grib2 2026-05-04 18:15 1.1M
20260504T12Z_MSC_CAPS_AirTemp_IsbL-0985_RLatLon0.03_PT017H.grib2 2026-05-04 18:15 1.0M
20260504T12Z_MSC_CAPS_AirTemp_IsbL-1000_RLatLon0.03_PT017H.grib2 2026-05-04 18:15 1.0M
20260504T12Z_MSC_CAPS_AirTemp_IsbL-1015_RLatLon0.03_PT017H.grib2 2026-05-04 18:15 1.1M
20260504T12Z_MSC_CAPS_Albedo_Sfc_RLatLon0.03_PT017H.grib2 2026-05-04 18:15 2.7M
20260504T12Z_MSC_CAPS_CAPE_Sfc_RLatLon0.03_PT017H.grib2 2026-05-04 18:15 173K
20260504T12Z_MSC_CAPS_CloudWater_EAtm_RLatLon0.03_PT017H.grib2 2026-05-04 18:15 1.5M
20260504T12Z_MSC_CAPS_ConvectivePrecip-Accum_Sfc_RLatLon0.03_PT017H.grib2 2026-05-04 18:15 3.3M
20260504T12Z_MSC_CAPS_DewPointDepression_AGL-120m_RLatLon0.03_PT017H.grib2 2026-05-04 18:15 2.1M
20260504T12Z_MSC_CAPS_DewPointDepression_AGL-2m_RLatLon0.03_PT017H.grib2 2026-05-04 18:15 2.2M
20260504T12Z_MSC_CAPS_DewPointDepression_AGL-40m_RLatLon0.03_PT017H.grib2 2026-05-04 18:15 2.1M
20260504T12Z_MSC_CAPS_DewPointDepression_AGL-80m_RLatLon0.03_PT017H.grib2 2026-05-04 18:15 2.1M
20260504T12Z_MSC_CAPS_DewPointDepression_IsbL-0050_RLatLon0.03_PT017H.grib2 2026-05-04 18:15 3.3K
20260504T12Z_MSC_CAPS_DewPointDepression_IsbL-0100_RLatLon0.03_PT017H.grib2 2026-05-04 18:15 72K
20260504T12Z_MSC_CAPS_DewPointDepression_IsbL-0150_RLatLon0.03_PT017H.grib2 2026-05-04 18:15 74K
20260504T12Z_MSC_CAPS_DewPointDepression_IsbL-0175_RLatLon0.03_PT017H.grib2 2026-05-04 18:15 199K
20260504T12Z_MSC_CAPS_DewPointDepression_IsbL-0200_RLatLon0.03_PT017H.grib2 2026-05-04 18:15 369K
20260504T12Z_MSC_CAPS_DewPointDepression_IsbL-0225_RLatLon0.03_PT017H.grib2 2026-05-04 18:15 624K
20260504T12Z_MSC_CAPS_DewPointDepression_IsbL-0250_RLatLon0.03_PT017H.grib2 2026-05-04 18:15 846K
20260504T12Z_MSC_CAPS_DewPointDepression_IsbL-0275_RLatLon0.03_PT017H.grib2 2026-05-04 18:15 1.0M
20260504T12Z_MSC_CAPS_DewPointDepression_IsbL-0300_RLatLon0.03_PT017H.grib2 2026-05-04 18:15 1.0M
20260504T12Z_MSC_CAPS_DewPointDepression_IsbL-0350_RLatLon0.03_PT017H.grib2 2026-05-04 18:15 1.1M
20260504T12Z_MSC_CAPS_DewPointDepression_IsbL-0400_RLatLon0.03_PT017H.grib2 2026-05-04 18:15 1.1M
20260504T12Z_MSC_CAPS_DewPointDepression_IsbL-0450_RLatLon0.03_PT017H.grib2 2026-05-04 18:15 1.2M
20260504T12Z_MSC_CAPS_DewPointDepression_IsbL-0500_RLatLon0.03_PT017H.grib2 2026-05-04 18:15 1.2M
20260504T12Z_MSC_CAPS_DewPointDepression_IsbL-0550_RLatLon0.03_PT017H.grib2 2026-05-04 18:15 1.2M
20260504T12Z_MSC_CAPS_DewPointDepression_IsbL-0600_RLatLon0.03_PT017H.grib2 2026-05-04 18:15 1.2M
20260504T12Z_MSC_CAPS_DewPointDepression_IsbL-0650_RLatLon0.03_PT017H.grib2 2026-05-04 18:15 1.3M
20260504T12Z_MSC_CAPS_DewPointDepression_IsbL-0700_RLatLon0.03_PT017H.grib2 2026-05-04 18:15 1.3M
20260504T12Z_MSC_CAPS_DewPointDepression_IsbL-0750_RLatLon0.03_PT017H.grib2 2026-05-04 18:15 1.3M
20260504T12Z_MSC_CAPS_DewPointDepression_IsbL-0800_RLatLon0.03_PT017H.grib2 2026-05-04 18:15 1.3M
20260504T12Z_MSC_CAPS_DewPointDepression_IsbL-0850_RLatLon0.03_PT017H.grib2 2026-05-04 18:15 1.3M
20260504T12Z_MSC_CAPS_DewPointDepression_IsbL-0875_RLatLon0.03_PT017H.grib2 2026-05-04 18:15 1.3M
20260504T12Z_MSC_CAPS_DewPointDepression_IsbL-0900_RLatLon0.03_PT017H.grib2 2026-05-04 18:15 1.3M
20260504T12Z_MSC_CAPS_DewPointDepression_IsbL-0925_RLatLon0.03_PT017H.grib2 2026-05-04 18:15 1.3M
20260504T12Z_MSC_CAPS_DewPointDepression_IsbL-0950_RLatLon0.03_PT017H.grib2 2026-05-04 18:15 1.4M
20260504T12Z_MSC_CAPS_DewPointDepression_IsbL-0970_RLatLon0.03_PT017H.grib2 2026-05-04 18:15 1.4M
20260504T12Z_MSC_CAPS_DewPointDepression_IsbL-0985_RLatLon0.03_PT017H.grib2 2026-05-04 18:15 1.4M
20260504T12Z_MSC_CAPS_DewPointDepression_IsbL-1000_RLatLon0.03_PT017H.grib2 2026-05-04 18:15 1.4M
20260504T12Z_MSC_CAPS_DewPointDepression_IsbL-1015_RLatLon0.03_PT017H.grib2 2026-05-04 18:15 1.3M
20260504T12Z_MSC_CAPS_DewPoint_AGL-120m_RLatLon0.03_PT017H.grib2 2026-05-04 18:15 3.5M
20260504T12Z_MSC_CAPS_DewPoint_AGL-2m_RLatLon0.03_PT017H.grib2 2026-05-04 18:15 1.8M
20260504T12Z_MSC_CAPS_DewPoint_AGL-40m_RLatLon0.03_PT017H.grib2 2026-05-04 18:15 3.5M
20260504T12Z_MSC_CAPS_DewPoint_AGL-80m_RLatLon0.03_PT017H.grib2 2026-05-04 18:15 3.5M
20260504T12Z_MSC_CAPS_DownwardLongwaveRadiationFlux-Accum_Sfc_RLatLon0.03_PT017H.grib2 2026-05-04 18:15 2.5M
20260504T12Z_MSC_CAPS_DownwardShortwaveRadiationFlux-Accum_NTAtm_RLatLon0.03_PT017H.grib2 2026-05-04 18:15 466K
20260504T12Z_MSC_CAPS_DownwardShortwaveRadiationFlux-Accum_Sfc_RLatLon0.03_PT017H.grib2 2026-05-04 18:15 2.9M
20260504T12Z_MSC_CAPS_FreezingRain-Accum_Sfc_RLatLon0.03_PT017H.grib2 2026-05-04 18:15 384K
20260504T12Z_MSC_CAPS_GeopotentialHeight_IsbL-0050_RLatLon0.03_PT017H.grib2 2026-05-04 18:15 632K
20260504T12Z_MSC_CAPS_GeopotentialHeight_IsbL-0100_RLatLon0.03_PT017H.grib2 2026-05-04 18:15 764K
20260504T12Z_MSC_CAPS_GeopotentialHeight_IsbL-0150_RLatLon0.03_PT017H.grib2 2026-05-04 18:15 720K
20260504T12Z_MSC_CAPS_GeopotentialHeight_IsbL-0175_RLatLon0.03_PT017H.grib2 2026-05-04 18:15 733K
20260504T12Z_MSC_CAPS_GeopotentialHeight_IsbL-0200_RLatLon0.03_PT017H.grib2 2026-05-04 18:15 747K
20260504T12Z_MSC_CAPS_GeopotentialHeight_IsbL-0225_RLatLon0.03_PT017H.grib2 2026-05-04 18:15 762K
20260504T12Z_MSC_CAPS_GeopotentialHeight_IsbL-0250_RLatLon0.03_PT017H.grib2 2026-05-04 18:15 772K
20260504T12Z_MSC_CAPS_GeopotentialHeight_IsbL-0275_RLatLon0.03_PT017H.grib2 2026-05-04 18:15 781K
20260504T12Z_MSC_CAPS_GeopotentialHeight_IsbL-0300_RLatLon0.03_PT017H.grib2 2026-05-04 18:15 784K
20260504T12Z_MSC_CAPS_GeopotentialHeight_IsbL-0350_RLatLon0.03_PT017H.grib2 2026-05-04 18:15 785K
20260504T12Z_MSC_CAPS_GeopotentialHeight_IsbL-0400_RLatLon0.03_PT017H.grib2 2026-05-04 18:15 780K
20260504T12Z_MSC_CAPS_GeopotentialHeight_IsbL-0450_RLatLon0.03_PT017H.grib2 2026-05-04 18:15 773K
20260504T12Z_MSC_CAPS_GeopotentialHeight_IsbL-0500_RLatLon0.03_PT017H.grib2 2026-05-04 18:15 769K
20260504T12Z_MSC_CAPS_GeopotentialHeight_IsbL-0550_RLatLon0.03_PT017H.grib2 2026-05-04 18:15 647K
20260504T12Z_MSC_CAPS_GeopotentialHeight_IsbL-0600_RLatLon0.03_PT017H.grib2 2026-05-04 18:15 807K
20260504T12Z_MSC_CAPS_GeopotentialHeight_IsbL-0650_RLatLon0.03_PT017H.grib2 2026-05-04 18:15 814K
20260504T12Z_MSC_CAPS_GeopotentialHeight_IsbL-0700_RLatLon0.03_PT017H.grib2 2026-05-04 18:15 816K
20260504T12Z_MSC_CAPS_GeopotentialHeight_IsbL-0750_RLatLon0.03_PT017H.grib2 2026-05-04 18:15 890K
20260504T12Z_MSC_CAPS_GeopotentialHeight_IsbL-0800_RLatLon0.03_PT017H.grib2 2026-05-04 18:15 823K
20260504T12Z_MSC_CAPS_GeopotentialHeight_IsbL-0850_RLatLon0.03_PT017H.grib2 2026-05-04 18:15 832K
20260504T12Z_MSC_CAPS_GeopotentialHeight_IsbL-0875_RLatLon0.03_PT017H.grib2 2026-05-04 18:15 824K
20260504T12Z_MSC_CAPS_GeopotentialHeight_IsbL-0900_RLatLon0.03_PT017H.grib2 2026-05-04 18:15 845K
20260504T12Z_MSC_CAPS_GeopotentialHeight_IsbL-0925_RLatLon0.03_PT017H.grib2 2026-05-04 18:15 666K
20260504T12Z_MSC_CAPS_GeopotentialHeight_IsbL-0950_RLatLon0.03_PT017H.grib2 2026-05-04 18:15 672K
20260504T12Z_MSC_CAPS_GeopotentialHeight_IsbL-0970_RLatLon0.03_PT017H.grib2 2026-05-04 18:15 678K
20260504T12Z_MSC_CAPS_GeopotentialHeight_IsbL-0985_RLatLon0.03_PT017H.grib2 2026-05-04 18:15 683K
20260504T12Z_MSC_CAPS_GeopotentialHeight_IsbL-1000_RLatLon0.03_PT017H.grib2 2026-05-04 18:15 689K
20260504T12Z_MSC_CAPS_GeopotentialHeight_IsbL-1015_RLatLon0.03_PT017H.grib2 2026-05-04 18:15 697K
20260504T12Z_MSC_CAPS_GeopotentialHeight_Sfc_RLatLon0.03_PT017H.grib2 2026-05-04 18:15 1.0M
20260504T12Z_MSC_CAPS_IcePellets-Accum_Sfc_RLatLon0.03_PT017H.grib2 2026-05-04 18:15 37K
20260504T12Z_MSC_CAPS_LatentHeatNetFlux_Sfc_RLatLon0.03_PT017H.grib2 2026-05-04 18:15 1.8M
20260504T12Z_MSC_CAPS_LiftedIndex-MU-VT_IsbL-0500_RLatLon0.03_PT017H.grib2 2026-05-04 18:15 3.3M
20260504T12Z_MSC_CAPS_MixedLayerThickness_Sfc_RLatLon0.03_PT017H.nc 2026-05-04 18:14 16M
20260504T12Z_MSC_CAPS_NetLongwaveRadiationFlux-Accum_Sfc_RLatLon0.03_PT017H.grib2 2026-05-04 18:15 2.8M
20260504T12Z_MSC_CAPS_NetShortwaveRadiationFlux-Accum_Sfc_RLatLon0.03_PT017H.grib2 2026-05-04 18:15 2.9M
20260504T12Z_MSC_CAPS_PlanetaryBoundaryLayerHeight_Sfc_RLatLon0.03_PT017H.grib2 2026-05-04 18:15 2.8M
20260504T12Z_MSC_CAPS_Precip-Accum_Sfc_RLatLon0.03_PT017H.grib2 2026-05-04 18:15 4.0M
20260504T12Z_MSC_CAPS_PrecipRate_Sfc_RLatLon0.03_PT017H.grib2 2026-05-04 18:15 462K
20260504T12Z_MSC_CAPS_PrecipType-Instant_Sfc_RLatLon0.03_PT017H.grib2 2026-05-04 18:15 1.8M
20260504T12Z_MSC_CAPS_Pressure_MSL_RLatLon0.03_PT017H.grib2 2026-05-04 18:15 924K
20260504T12Z_MSC_CAPS_Pressure_Sfc_RLatLon0.03_PT017H.grib2 2026-05-04 18:15 1.2M
20260504T12Z_MSC_CAPS_RadiativeTemp_Sfc_RLatLon0.03_PT017H.grib2 2026-05-04 18:15 2.1M
20260504T12Z_MSC_CAPS_Rain-Accum_Sfc_RLatLon0.03_PT017H.grib2 2026-05-04 18:15 2.1M
20260504T12Z_MSC_CAPS_RelativeHumidity_AGL-120m_RLatLon0.03_PT017H.grib2 2026-05-04 18:15 2.8M
20260504T12Z_MSC_CAPS_RelativeHumidity_AGL-2m_RLatLon0.03_PT017H.grib2 2026-05-04 18:15 2.9M
20260504T12Z_MSC_CAPS_RelativeHumidity_AGL-40m_RLatLon0.03_PT017H.grib2 2026-05-04 18:15 2.9M
20260504T12Z_MSC_CAPS_RelativeHumidity_AGL-80m_RLatLon0.03_PT017H.grib2 2026-05-04 18:15 2.8M
20260504T12Z_MSC_CAPS_RelativeHumidity_IsbL-0050_RLatLon0.03_PT017H.grib2 2026-05-04 18:15 971K
20260504T12Z_MSC_CAPS_RelativeHumidity_IsbL-0100_RLatLon0.03_PT017H.grib2 2026-05-04 18:15 868K
20260504T12Z_MSC_CAPS_RelativeHumidity_IsbL-0150_RLatLon0.03_PT017H.grib2 2026-05-04 18:15 604K
20260504T12Z_MSC_CAPS_RelativeHumidity_IsbL-0175_RLatLon0.03_PT017H.grib2 2026-05-04 18:15 628K
20260504T12Z_MSC_CAPS_RelativeHumidity_IsbL-0200_RLatLon0.03_PT017H.grib2 2026-05-04 18:15 647K
20260504T12Z_MSC_CAPS_RelativeHumidity_IsbL-0225_RLatLon0.03_PT017H.grib2 2026-05-04 18:15 867K
20260504T12Z_MSC_CAPS_RelativeHumidity_IsbL-0250_RLatLon0.03_PT017H.grib2 2026-05-04 18:15 1.1M
20260504T12Z_MSC_CAPS_RelativeHumidity_IsbL-0275_RLatLon0.03_PT017H.grib2 2026-05-04 18:15 1.4M
20260504T12Z_MSC_CAPS_RelativeHumidity_IsbL-0300_RLatLon0.03_PT017H.grib2 2026-05-04 18:15 1.7M
20260504T12Z_MSC_CAPS_RelativeHumidity_IsbL-0350_RLatLon0.03_PT017H.grib2 2026-05-04 18:15 1.9M
20260504T12Z_MSC_CAPS_RelativeHumidity_IsbL-0400_RLatLon0.03_PT017H.grib2 2026-05-04 18:15 2.1M
20260504T12Z_MSC_CAPS_RelativeHumidity_IsbL-0450_RLatLon0.03_PT017H.grib2 2026-05-04 18:15 2.0M
20260504T12Z_MSC_CAPS_RelativeHumidity_IsbL-0500_RLatLon0.03_PT017H.grib2 2026-05-04 18:15 2.1M
20260504T12Z_MSC_CAPS_RelativeHumidity_IsbL-0550_RLatLon0.03_PT017H.grib2 2026-05-04 18:15 2.1M
20260504T12Z_MSC_CAPS_RelativeHumidity_IsbL-0600_RLatLon0.03_PT017H.grib2 2026-05-04 18:15 2.1M
20260504T12Z_MSC_CAPS_RelativeHumidity_IsbL-0650_RLatLon0.03_PT017H.grib2 2026-05-04 18:15 2.2M
20260504T12Z_MSC_CAPS_RelativeHumidity_IsbL-0700_RLatLon0.03_PT017H.grib2 2026-05-04 18:15 2.3M
20260504T12Z_MSC_CAPS_RelativeHumidity_IsbL-0750_RLatLon0.03_PT017H.grib2 2026-05-04 18:15 2.3M
20260504T12Z_MSC_CAPS_RelativeHumidity_IsbL-0800_RLatLon0.03_PT017H.grib2 2026-05-04 18:15 2.5M
20260504T12Z_MSC_CAPS_RelativeHumidity_IsbL-0850_RLatLon0.03_PT017H.grib2 2026-05-04 18:15 2.5M
20260504T12Z_MSC_CAPS_RelativeHumidity_IsbL-0875_RLatLon0.03_PT017H.grib2 2026-05-04 18:15 2.6M
20260504T12Z_MSC_CAPS_RelativeHumidity_IsbL-0900_RLatLon0.03_PT017H.grib2 2026-05-04 18:15 2.6M
20260504T12Z_MSC_CAPS_RelativeHumidity_IsbL-0925_RLatLon0.03_PT017H.grib2 2026-05-04 18:15 2.7M
20260504T12Z_MSC_CAPS_RelativeHumidity_IsbL-0950_RLatLon0.03_PT017H.grib2 2026-05-04 18:15 2.7M
20260504T12Z_MSC_CAPS_RelativeHumidity_IsbL-0970_RLatLon0.03_PT017H.grib2 2026-05-04 18:15 2.8M
20260504T12Z_MSC_CAPS_RelativeHumidity_IsbL-0985_RLatLon0.03_PT017H.grib2 2026-05-04 18:15 2.9M
20260504T12Z_MSC_CAPS_RelativeHumidity_IsbL-1000_RLatLon0.03_PT017H.grib2 2026-05-04 18:15 2.9M
20260504T12Z_MSC_CAPS_RelativeHumidity_IsbL-1015_RLatLon0.03_PT017H.grib2 2026-05-04 18:15 2.9M
20260504T12Z_MSC_CAPS_Runoff-Accum_Sfc_RLatLon0.03_PT017H.grib2 2026-05-04 18:15 317K
20260504T12Z_MSC_CAPS_SeaIceAreaFraction_Sfc_RLatLon0.03_PT017H.nc 2026-05-04 18:14 15M
20260504T12Z_MSC_CAPS_SeaIceCompressiveStrength_Sfc_RLatLon0.03_PT017H.nc 2026-05-04 18:14 15M
20260504T12Z_MSC_CAPS_SeaIceDivergence_Sfc_RLatLon0.03_PT017H.nc 2026-05-04 18:14 15M
20260504T12Z_MSC_CAPS_SeaIceInternalPressure_Sfc_RLatLon0.03_PT017H.nc 2026-05-04 18:14 15M
20260504T12Z_MSC_CAPS_SeaIceShear_Sfc_RLatLon0.03_PT017H.nc 2026-05-04 18:14 15M
20260504T12Z_MSC_CAPS_SeaIceSnowTemp_Sfc_RLatLon0.03_PT017H.nc 2026-05-04 18:14 14M
20260504T12Z_MSC_CAPS_SeaIceSnowVolume_Sfc_RLatLon0.03_PT017H.nc 2026-05-04 18:14 15M
20260504T12Z_MSC_CAPS_SeaIceVelocityX_Sfc_RLatLon0.03_PT017H.nc 2026-05-04 18:14 15M
20260504T12Z_MSC_CAPS_SeaIceVelocityY_Sfc_RLatLon0.03_PT017H.nc 2026-05-04 18:14 15M
20260504T12Z_MSC_CAPS_SeaIceVolume_Sfc_RLatLon0.03_PT017H.nc 2026-05-04 18:14 15M
20260504T12Z_MSC_CAPS_SeaSurfaceHeight_Sfc_RLatLon0.03_PT017H.nc 2026-05-04 18:14 16M
20260504T12Z_MSC_CAPS_SeaWaterSalinity_DBS-0.5m_RLatLon0.03_PT017H.nc 2026-05-04 18:14 16M
20260504T12Z_MSC_CAPS_SeaWaterSalinity_DBS-all_RLatLon0.03_PT017H.nc 2026-05-04 18:14 107M
20260504T12Z_MSC_CAPS_SeaWaterTemp_DBS-0.5m_RLatLon0.03_PT017H.nc 2026-05-04 18:14 15M
20260504T12Z_MSC_CAPS_SeaWaterTemp_DBS-all_RLatLon0.03_PT017H.nc 2026-05-04 18:14 88M
20260504T12Z_MSC_CAPS_SeaWaterVelocityX_DBS-0.5m_RLatLon0.03_PT017H.nc 2026-05-04 18:14 17M
20260504T12Z_MSC_CAPS_SeaWaterVelocityX_DBS-all_RLatLon0.03_PT017H.nc 2026-05-04 18:14 211M
20260504T12Z_MSC_CAPS_SeaWaterVelocityY_DBS-0.5m_RLatLon0.03_PT017H.nc 2026-05-04 18:14 17M
20260504T12Z_MSC_CAPS_SeaWaterVelocityY_DBS-all_RLatLon0.03_PT017H.nc 2026-05-04 18:14 210M
20260504T12Z_MSC_CAPS_SensibleHeatNetFlux_Sfc_RLatLon0.03_PT017H.grib2 2026-05-04 18:15 2.1M
20260504T12Z_MSC_CAPS_ShowalterIndex_IsbL-0500_RLatLon0.03_PT017H.grib2 2026-05-04 18:15 3.8M
20260504T12Z_MSC_CAPS_Snow-Accum_Sfc_RLatLon0.03_PT017H.grib2 2026-05-04 18:15 3.0M
20260504T12Z_MSC_CAPS_SnowDensity_Sfc_RLatLon0.03_PT017H.grib2 2026-05-04 18:15 1.2M
20260504T12Z_MSC_CAPS_SnowDepthWaterEquivalent_Sfc_RLatLon0.03_PT017H.grib2 2026-05-04 18:15 660K
20260504T12Z_MSC_CAPS_SnowDepth_Sfc_RLatLon0.03_PT017H.grib2 2026-05-04 18:15 1.1M
20260504T12Z_MSC_CAPS_SoilTemp_DBS-0to10cm_RLatLon0.03_PT017H.grib2 2026-05-04 18:15 1.5M
20260504T12Z_MSC_CAPS_SoilTemp_Sfc_RLatLon0.03_PT017H.grib2 2026-05-04 18:15 1.8M
20260504T12Z_MSC_CAPS_SoilVolumetricIceContent_Sfc_RLatLon0.03_PT017H.grib2 2026-05-04 18:15 1.4M
20260504T12Z_MSC_CAPS_SoilVolumetricWaterContent_DBS-0to10cm_RLatLon0.03_PT017H.grib2 2026-05-04 18:15 1.3M
20260504T12Z_MSC_CAPS_SoilVolumetricWaterContent_DBS-0to1cm_RLatLon0.03_PT017H.grib2 2026-05-04 18:15 1.7M
20260504T12Z_MSC_CAPS_SpecificHumidity_AGL-120m_RLatLon0.03_PT017H.grib2 2026-05-04 18:15 1.4M
20260504T12Z_MSC_CAPS_SpecificHumidity_AGL-2m_RLatLon0.03_PT017H.grib2 2026-05-04 18:15 1.7M
20260504T12Z_MSC_CAPS_SpecificHumidity_AGL-40m_RLatLon0.03_PT017H.grib2 2026-05-04 18:15 1.5M
20260504T12Z_MSC_CAPS_SpecificHumidity_AGL-80m_RLatLon0.03_PT017H.grib2 2026-05-04 18:15 1.4M
20260504T12Z_MSC_CAPS_SpecificHumidity_IsbL-0050_RLatLon0.03_PT017H.grib2 2026-05-04 18:15 900K
20260504T12Z_MSC_CAPS_SpecificHumidity_IsbL-0100_RLatLon0.03_PT017H.grib2 2026-05-04 18:15 1.1M
20260504T12Z_MSC_CAPS_SpecificHumidity_IsbL-0150_RLatLon0.03_PT017H.grib2 2026-05-04 18:15 1.0M
20260504T12Z_MSC_CAPS_SpecificHumidity_IsbL-0175_RLatLon0.03_PT017H.grib2 2026-05-04 18:15 1.0M
20260504T12Z_MSC_CAPS_SpecificHumidity_IsbL-0200_RLatLon0.03_PT017H.grib2 2026-05-04 18:15 877K
20260504T12Z_MSC_CAPS_SpecificHumidity_IsbL-0225_RLatLon0.03_PT017H.grib2 2026-05-04 18:15 1.1M
20260504T12Z_MSC_CAPS_SpecificHumidity_IsbL-0250_RLatLon0.03_PT017H.grib2 2026-05-04 18:15 1.1M
20260504T12Z_MSC_CAPS_SpecificHumidity_IsbL-0275_RLatLon0.03_PT017H.grib2 2026-05-04 18:15 1.1M
20260504T12Z_MSC_CAPS_SpecificHumidity_IsbL-0300_RLatLon0.03_PT017H.grib2 2026-05-04 18:15 1.1M
20260504T12Z_MSC_CAPS_SpecificHumidity_IsbL-0350_RLatLon0.03_PT017H.grib2 2026-05-04 18:15 1.0M
20260504T12Z_MSC_CAPS_SpecificHumidity_IsbL-0400_RLatLon0.03_PT017H.grib2 2026-05-04 18:15 1.0M
20260504T12Z_MSC_CAPS_SpecificHumidity_IsbL-0450_RLatLon0.03_PT017H.grib2 2026-05-04 18:15 1.1M
20260504T12Z_MSC_CAPS_SpecificHumidity_IsbL-0500_RLatLon0.03_PT017H.grib2 2026-05-04 18:15 1.1M
20260504T12Z_MSC_CAPS_SpecificHumidity_IsbL-0550_RLatLon0.03_PT017H.grib2 2026-05-04 18:15 1.2M
20260504T12Z_MSC_CAPS_SpecificHumidity_IsbL-0600_RLatLon0.03_PT017H.grib2 2026-05-04 18:15 1.4M
20260504T12Z_MSC_CAPS_SpecificHumidity_IsbL-0650_RLatLon0.03_PT017H.grib2 2026-05-04 18:15 1.5M
20260504T12Z_MSC_CAPS_SpecificHumidity_IsbL-0700_RLatLon0.03_PT017H.grib2 2026-05-04 18:15 1.6M
20260504T12Z_MSC_CAPS_SpecificHumidity_IsbL-0750_RLatLon0.03_PT017H.grib2 2026-05-04 18:15 1.4M
20260504T12Z_MSC_CAPS_SpecificHumidity_IsbL-0800_RLatLon0.03_PT017H.grib2 2026-05-04 18:15 1.6M
20260504T12Z_MSC_CAPS_SpecificHumidity_IsbL-0850_RLatLon0.03_PT017H.grib2 2026-05-04 18:15 1.7M
20260504T12Z_MSC_CAPS_SpecificHumidity_IsbL-0875_RLatLon0.03_PT017H.grib2 2026-05-04 18:15 1.8M
20260504T12Z_MSC_CAPS_SpecificHumidity_IsbL-0900_RLatLon0.03_PT017H.grib2 2026-05-04 18:15 1.5M
20260504T12Z_MSC_CAPS_SpecificHumidity_IsbL-0925_RLatLon0.03_PT017H.grib2 2026-05-04 18:15 1.5M
20260504T12Z_MSC_CAPS_SpecificHumidity_IsbL-0950_RLatLon0.03_PT017H.grib2 2026-05-04 18:15 1.6M
20260504T12Z_MSC_CAPS_SpecificHumidity_IsbL-0970_RLatLon0.03_PT017H.grib2 2026-05-04 18:15 1.6M
20260504T12Z_MSC_CAPS_SpecificHumidity_IsbL-0985_RLatLon0.03_PT017H.grib2 2026-05-04 18:15 1.7M
20260504T12Z_MSC_CAPS_SpecificHumidity_IsbL-1000_RLatLon0.03_PT017H.grib2 2026-05-04 18:15 1.7M
20260504T12Z_MSC_CAPS_SpecificHumidity_IsbL-1015_RLatLon0.03_PT017H.grib2 2026-05-04 18:15 1.7M
20260504T12Z_MSC_CAPS_SpecificHumidity_Sfc_RLatLon0.03_PT017H.grib2 2026-05-04 18:15 2.1M
20260504T12Z_MSC_CAPS_StormRelativeHelicity_Sfc_RLatLon0.03_PT017H.grib2 2026-05-04 18:15 3.3M
20260504T12Z_MSC_CAPS_Thickness_IsbL-1000to0500_RLatLon0.03_PT017H.grib2 2026-05-04 18:15 471K
20260504T12Z_MSC_CAPS_TotalCloudCover_Sfc_RLatLon0.03_PT017H.grib2 2026-05-04 18:15 3.3M
20260504T12Z_MSC_CAPS_TurboclineDepth_Sfc_RLatLon0.03_PT017H.nc 2026-05-04 18:14 16M
20260504T12Z_MSC_CAPS_UpwardLongwaveRadiationFlux_NTAtm_RLatLon0.03_PT017H.grib2 2026-05-04 18:15 2.9M
20260504T12Z_MSC_CAPS_UpwardShortwaveRadiationFlux_NTAtm_RLatLon0.03_PT017H.grib2 2026-05-04 18:15 1.8M
20260504T12Z_MSC_CAPS_VerticalVelocity_IsbL-0250_RLatLon0.03_PT017H.grib2 2026-05-04 18:15 913K
20260504T12Z_MSC_CAPS_VerticalVelocity_IsbL-0500_RLatLon0.03_PT017H.grib2 2026-05-04 18:15 886K
20260504T12Z_MSC_CAPS_VerticalVelocity_IsbL-0700_RLatLon0.03_PT017H.grib2 2026-05-04 18:15 967K
20260504T12Z_MSC_CAPS_VerticalVelocity_IsbL-0850_RLatLon0.03_PT017H.grib2 2026-05-04 18:15 1.1M
20260504T12Z_MSC_CAPS_VerticalVelocity_IsbL-1000_RLatLon0.03_PT017H.grib2 2026-05-04 18:15 1.4M
20260504T12Z_MSC_CAPS_WindDir_AGL-10m_RLatLon0.03_PT017H.grib2 2026-05-04 18:15 2.4M
20260504T12Z_MSC_CAPS_WindDir_AGL-120m_RLatLon0.03_PT017H.grib2 2026-05-04 18:15 1.2M
20260504T12Z_MSC_CAPS_WindDir_AGL-40m_RLatLon0.03_PT017H.grib2 2026-05-04 18:15 1.3M
20260504T12Z_MSC_CAPS_WindDir_AGL-80m_RLatLon0.03_PT017H.grib2 2026-05-04 18:15 1.3M
20260504T12Z_MSC_CAPS_WindDir_IsbL-0050_RLatLon0.03_PT017H.grib2 2026-05-04 18:15 1.0M
20260504T12Z_MSC_CAPS_WindDir_IsbL-0100_RLatLon0.03_PT017H.grib2 2026-05-04 18:15 1.0M
20260504T12Z_MSC_CAPS_WindDir_IsbL-0150_RLatLon0.03_PT017H.grib2 2026-05-04 18:15 1.0M
20260504T12Z_MSC_CAPS_WindDir_IsbL-0175_RLatLon0.03_PT017H.grib2 2026-05-04 18:15 1.1M
20260504T12Z_MSC_CAPS_WindDir_IsbL-0200_RLatLon0.03_PT017H.grib2 2026-05-04 18:15 1.1M
20260504T12Z_MSC_CAPS_WindDir_IsbL-0225_RLatLon0.03_PT017H.grib2 2026-05-04 18:15 1.1M
20260504T12Z_MSC_CAPS_WindDir_IsbL-0250_RLatLon0.03_PT017H.grib2 2026-05-04 18:15 1.1M
20260504T12Z_MSC_CAPS_WindDir_IsbL-0275_RLatLon0.03_PT017H.grib2 2026-05-04 18:15 1.1M
20260504T12Z_MSC_CAPS_WindDir_IsbL-0300_RLatLon0.03_PT017H.grib2 2026-05-04 18:15 1.1M
20260504T12Z_MSC_CAPS_WindDir_IsbL-0350_RLatLon0.03_PT017H.grib2 2026-05-04 18:15 1.1M
20260504T12Z_MSC_CAPS_WindDir_IsbL-0400_RLatLon0.03_PT017H.grib2 2026-05-04 18:15 1.1M
20260504T12Z_MSC_CAPS_WindDir_IsbL-0450_RLatLon0.03_PT017H.grib2 2026-05-04 18:15 1.2M
20260504T12Z_MSC_CAPS_WindDir_IsbL-0500_RLatLon0.03_PT017H.grib2 2026-05-04 18:15 1.2M
20260504T12Z_MSC_CAPS_WindDir_IsbL-0550_RLatLon0.03_PT017H.grib2 2026-05-04 18:15 1.3M
20260504T12Z_MSC_CAPS_WindDir_IsbL-0600_RLatLon0.03_PT017H.grib2 2026-05-04 18:15 1.2M
20260504T12Z_MSC_CAPS_WindDir_IsbL-0650_RLatLon0.03_PT017H.grib2 2026-05-04 18:15 1.3M
20260504T12Z_MSC_CAPS_WindDir_IsbL-0700_RLatLon0.03_PT017H.grib2 2026-05-04 18:15 1.5M
20260504T12Z_MSC_CAPS_WindDir_IsbL-0750_RLatLon0.03_PT017H.grib2 2026-05-04 18:15 1.5M
20260504T12Z_MSC_CAPS_WindDir_IsbL-0800_RLatLon0.03_PT017H.grib2 2026-05-04 18:15 1.6M
20260504T12Z_MSC_CAPS_WindDir_IsbL-0850_RLatLon0.03_PT017H.grib2 2026-05-04 18:15 1.7M
20260504T12Z_MSC_CAPS_WindDir_IsbL-0875_RLatLon0.03_PT017H.grib2 2026-05-04 18:15 1.8M
20260504T12Z_MSC_CAPS_WindDir_IsbL-0900_RLatLon0.03_PT017H.grib2 2026-05-04 18:15 1.9M
20260504T12Z_MSC_CAPS_WindDir_IsbL-0925_RLatLon0.03_PT017H.grib2 2026-05-04 18:15 1.9M
20260504T12Z_MSC_CAPS_WindDir_IsbL-0950_RLatLon0.03_PT017H.grib2 2026-05-04 18:15 2.0M
20260504T12Z_MSC_CAPS_WindDir_IsbL-0970_RLatLon0.03_PT017H.grib2 2026-05-04 18:15 2.1M
20260504T12Z_MSC_CAPS_WindDir_IsbL-0985_RLatLon0.03_PT017H.grib2 2026-05-04 18:15 2.2M
20260504T12Z_MSC_CAPS_WindDir_IsbL-1000_RLatLon0.03_PT017H.grib2 2026-05-04 18:15 2.3M
20260504T12Z_MSC_CAPS_WindDir_IsbL-1015_RLatLon0.03_PT017H.grib2 2026-05-04 18:15 2.3M
20260504T12Z_MSC_CAPS_WindGust-Max_AGL-10m_RLatLon0.03_PT017H.grib2 2026-05-04 18:15 2.5M
20260504T12Z_MSC_CAPS_WindGust-Min_AGL-10m_RLatLon0.03_PT017H.grib2 2026-05-04 18:15 2.4M
20260504T12Z_MSC_CAPS_WindGust_AGL-10m_RLatLon0.03_PT017H.grib2 2026-05-04 18:15 2.5M
20260504T12Z_MSC_CAPS_WindSpeed_AGL-10m_RLatLon0.03_PT017H.grib2 2026-05-04 18:15 2.1M
20260504T12Z_MSC_CAPS_WindSpeed_AGL-120m_RLatLon0.03_PT017H.grib2 2026-05-04 18:15 1.1M
20260504T12Z_MSC_CAPS_WindSpeed_AGL-40m_RLatLon0.03_PT017H.grib2 2026-05-04 18:15 1.2M
20260504T12Z_MSC_CAPS_WindSpeed_AGL-80m_RLatLon0.03_PT017H.grib2 2026-05-04 18:15 1.2M
20260504T12Z_MSC_CAPS_WindSpeed_IsbL-0050_RLatLon0.03_PT017H.grib2 2026-05-04 18:15 1.3M
20260504T12Z_MSC_CAPS_WindSpeed_IsbL-0100_RLatLon0.03_PT017H.grib2 2026-05-04 18:15 963K
20260504T12Z_MSC_CAPS_WindSpeed_IsbL-0150_RLatLon0.03_PT017H.grib2 2026-05-04 18:15 1.1M
20260504T12Z_MSC_CAPS_WindSpeed_IsbL-0175_RLatLon0.03_PT017H.grib2 2026-05-04 18:15 1.1M
20260504T12Z_MSC_CAPS_WindSpeed_IsbL-0200_RLatLon0.03_PT017H.grib2 2026-05-04 18:15 939K
20260504T12Z_MSC_CAPS_WindSpeed_IsbL-0225_RLatLon0.03_PT017H.grib2 2026-05-04 18:15 956K
20260504T12Z_MSC_CAPS_WindSpeed_IsbL-0250_RLatLon0.03_PT017H.grib2 2026-05-04 18:15 971K
20260504T12Z_MSC_CAPS_WindSpeed_IsbL-0275_RLatLon0.03_PT017H.grib2 2026-05-04 18:15 1.0M
20260504T12Z_MSC_CAPS_WindSpeed_IsbL-0300_RLatLon0.03_PT017H.grib2 2026-05-04 18:15 1.0M
20260504T12Z_MSC_CAPS_WindSpeed_IsbL-0350_RLatLon0.03_PT017H.grib2 2026-05-04 18:15 1.0M
20260504T12Z_MSC_CAPS_WindSpeed_IsbL-0400_RLatLon0.03_PT017H.grib2 2026-05-04 18:15 1.0M
20260504T12Z_MSC_CAPS_WindSpeed_IsbL-0450_RLatLon0.03_PT017H.grib2 2026-05-04 18:15 1.3M
20260504T12Z_MSC_CAPS_WindSpeed_IsbL-0500_RLatLon0.03_PT017H.grib2 2026-05-04 18:15 1.4M
20260504T12Z_MSC_CAPS_WindSpeed_IsbL-0550_RLatLon0.03_PT017H.grib2 2026-05-04 18:15 1.4M
20260504T12Z_MSC_CAPS_WindSpeed_IsbL-0600_RLatLon0.03_PT017H.grib2 2026-05-04 18:15 1.4M
20260504T12Z_MSC_CAPS_WindSpeed_IsbL-0650_RLatLon0.03_PT017H.grib2 2026-05-04 18:15 1.5M
20260504T12Z_MSC_CAPS_WindSpeed_IsbL-0700_RLatLon0.03_PT017H.grib2 2026-05-04 18:15 1.6M
20260504T12Z_MSC_CAPS_WindSpeed_IsbL-0750_RLatLon0.03_PT017H.grib2 2026-05-04 18:15 1.6M
20260504T12Z_MSC_CAPS_WindSpeed_IsbL-0800_RLatLon0.03_PT017H.grib2 2026-05-04 18:15 1.7M
20260504T12Z_MSC_CAPS_WindSpeed_IsbL-0850_RLatLon0.03_PT017H.grib2 2026-05-04 18:15 1.8M
20260504T12Z_MSC_CAPS_WindSpeed_IsbL-0875_RLatLon0.03_PT017H.grib2 2026-05-04 18:15 1.8M
20260504T12Z_MSC_CAPS_WindSpeed_IsbL-0900_RLatLon0.03_PT017H.grib2 2026-05-04 18:15 1.8M
20260504T12Z_MSC_CAPS_WindSpeed_IsbL-0925_RLatLon0.03_PT017H.grib2 2026-05-04 18:15 1.9M
20260504T12Z_MSC_CAPS_WindSpeed_IsbL-0950_RLatLon0.03_PT017H.grib2 2026-05-04 18:15 2.0M
20260504T12Z_MSC_CAPS_WindSpeed_IsbL-0970_RLatLon0.03_PT017H.grib2 2026-05-04 18:15 2.0M
20260504T12Z_MSC_CAPS_WindSpeed_IsbL-0985_RLatLon0.03_PT017H.grib2 2026-05-04 18:15 2.0M
20260504T12Z_MSC_CAPS_WindSpeed_IsbL-1000_RLatLon0.03_PT017H.grib2 2026-05-04 18:15 2.1M
20260504T12Z_MSC_CAPS_WindSpeed_IsbL-1015_RLatLon0.03_PT017H.grib2 2026-05-04 18:15 2.1M
20260504T12Z_MSC_CAPS_WindU_AGL-10m_RLatLon0.03_PT017H.grib2 2026-05-04 18:15 2.0M
20260504T12Z_MSC_CAPS_WindU_AGL-120m_RLatLon0.03_PT017H.grib2 2026-05-04 18:15 1.2M
20260504T12Z_MSC_CAPS_WindU_AGL-40m_RLatLon0.03_PT017H.grib2 2026-05-04 18:15 1.2M
20260504T12Z_MSC_CAPS_WindU_AGL-80m_RLatLon0.03_PT017H.grib2 2026-05-04 18:15 1.2M
20260504T12Z_MSC_CAPS_WindU_IsbL-0050_RLatLon0.03_PT017H.grib2 2026-05-04 18:15 943K
20260504T12Z_MSC_CAPS_WindU_IsbL-0100_RLatLon0.03_PT017H.grib2 2026-05-04 18:15 808K
20260504T12Z_MSC_CAPS_WindU_IsbL-0150_RLatLon0.03_PT017H.grib2 2026-05-04 18:15 926K
20260504T12Z_MSC_CAPS_WindU_IsbL-0175_RLatLon0.03_PT017H.grib2 2026-05-04 18:15 728K
20260504T12Z_MSC_CAPS_WindU_IsbL-0200_RLatLon0.03_PT017H.grib2 2026-05-04 18:15 877K
20260504T12Z_MSC_CAPS_WindU_IsbL-0225_RLatLon0.03_PT017H.grib2 2026-05-04 18:15 896K
20260504T12Z_MSC_CAPS_WindU_IsbL-0250_RLatLon0.03_PT017H.grib2 2026-05-04 18:15 702K
20260504T12Z_MSC_CAPS_WindU_IsbL-0275_RLatLon0.03_PT017H.grib2 2026-05-04 18:15 920K
20260504T12Z_MSC_CAPS_WindU_IsbL-0300_RLatLon0.03_PT017H.grib2 2026-05-04 18:15 717K
20260504T12Z_MSC_CAPS_WindU_IsbL-0350_RLatLon0.03_PT017H.grib2 2026-05-04 18:15 730K
20260504T12Z_MSC_CAPS_WindU_IsbL-0400_RLatLon0.03_PT017H.grib2 2026-05-04 18:15 953K
20260504T12Z_MSC_CAPS_WindU_IsbL-0450_RLatLon0.03_PT017H.grib2 2026-05-04 18:15 973K
20260504T12Z_MSC_CAPS_WindU_IsbL-0500_RLatLon0.03_PT017H.grib2 2026-05-04 18:15 1.0M
20260504T12Z_MSC_CAPS_WindU_IsbL-0550_RLatLon0.03_PT017H.grib2 2026-05-04 18:15 1.0M
20260504T12Z_MSC_CAPS_WindU_IsbL-0600_RLatLon0.03_PT017H.grib2 2026-05-04 18:15 948K
20260504T12Z_MSC_CAPS_WindU_IsbL-0650_RLatLon0.03_PT017H.grib2 2026-05-04 18:15 1.0M
20260504T12Z_MSC_CAPS_WindU_IsbL-0700_RLatLon0.03_PT017H.grib2 2026-05-04 18:15 1.1M
20260504T12Z_MSC_CAPS_WindU_IsbL-0750_RLatLon0.03_PT017H.grib2 2026-05-04 18:15 1.1M
20260504T12Z_MSC_CAPS_WindU_IsbL-0800_RLatLon0.03_PT017H.grib2 2026-05-04 18:15 1.1M
20260504T12Z_MSC_CAPS_WindU_IsbL-0850_RLatLon0.03_PT017H.grib2 2026-05-04 18:15 1.2M
20260504T12Z_MSC_CAPS_WindU_IsbL-0875_RLatLon0.03_PT017H.grib2 2026-05-04 18:15 1.2M
20260504T12Z_MSC_CAPS_WindU_IsbL-0900_RLatLon0.03_PT017H.grib2 2026-05-04 18:15 1.3M
20260504T12Z_MSC_CAPS_WindU_IsbL-0925_RLatLon0.03_PT017H.grib2 2026-05-04 18:15 1.3M
20260504T12Z_MSC_CAPS_WindU_IsbL-0950_RLatLon0.03_PT017H.grib2 2026-05-04 18:15 1.4M
20260504T12Z_MSC_CAPS_WindU_IsbL-0970_RLatLon0.03_PT017H.grib2 2026-05-04 18:15 1.4M
20260504T12Z_MSC_CAPS_WindU_IsbL-0985_RLatLon0.03_PT017H.grib2 2026-05-04 18:15 1.8M
20260504T12Z_MSC_CAPS_WindU_IsbL-1000_RLatLon0.03_PT017H.grib2 2026-05-04 18:15 1.8M
20260504T12Z_MSC_CAPS_WindU_IsbL-1015_RLatLon0.03_PT017H.grib2 2026-05-04 18:15 2.0M
20260504T12Z_MSC_CAPS_WindV_AGL-10m_RLatLon0.03_PT017H.grib2 2026-05-04 18:15 2.0M
20260504T12Z_MSC_CAPS_WindV_AGL-120m_RLatLon0.03_PT017H.grib2 2026-05-04 18:15 904K
20260504T12Z_MSC_CAPS_WindV_AGL-40m_RLatLon0.03_PT017H.grib2 2026-05-04 18:15 1.2M
20260504T12Z_MSC_CAPS_WindV_AGL-80m_RLatLon0.03_PT017H.grib2 2026-05-04 18:15 1.2M
20260504T12Z_MSC_CAPS_WindV_IsbL-0050_RLatLon0.03_PT017H.grib2 2026-05-04 18:15 771K
20260504T12Z_MSC_CAPS_WindV_IsbL-0100_RLatLon0.03_PT017H.grib2 2026-05-04 18:15 1.0M
20260504T12Z_MSC_CAPS_WindV_IsbL-0150_RLatLon0.03_PT017H.grib2 2026-05-04 18:15 712K
20260504T12Z_MSC_CAPS_WindV_IsbL-0175_RLatLon0.03_PT017H.grib2 2026-05-04 18:15 850K
20260504T12Z_MSC_CAPS_WindV_IsbL-0200_RLatLon0.03_PT017H.grib2 2026-05-04 18:15 871K
20260504T12Z_MSC_CAPS_WindV_IsbL-0225_RLatLon0.03_PT017H.grib2 2026-05-04 18:15 679K
20260504T12Z_MSC_CAPS_WindV_IsbL-0250_RLatLon0.03_PT017H.grib2 2026-05-04 18:15 700K
20260504T12Z_MSC_CAPS_WindV_IsbL-0275_RLatLon0.03_PT017H.grib2 2026-05-04 18:15 710K
20260504T12Z_MSC_CAPS_WindV_IsbL-0300_RLatLon0.03_PT017H.grib2 2026-05-04 18:15 716K
20260504T12Z_MSC_CAPS_WindV_IsbL-0350_RLatLon0.03_PT017H.grib2 2026-05-04 18:15 728K
20260504T12Z_MSC_CAPS_WindV_IsbL-0400_RLatLon0.03_PT017H.grib2 2026-05-04 18:15 949K
20260504T12Z_MSC_CAPS_WindV_IsbL-0450_RLatLon0.03_PT017H.grib2 2026-05-04 18:15 971K
20260504T12Z_MSC_CAPS_WindV_IsbL-0500_RLatLon0.03_PT017H.grib2 2026-05-04 18:15 1.0M
20260504T12Z_MSC_CAPS_WindV_IsbL-0550_RLatLon0.03_PT017H.grib2 2026-05-04 18:15 1.0M
20260504T12Z_MSC_CAPS_WindV_IsbL-0600_RLatLon0.03_PT017H.grib2 2026-05-04 18:15 947K
20260504T12Z_MSC_CAPS_WindV_IsbL-0650_RLatLon0.03_PT017H.grib2 2026-05-04 18:15 1.2M
20260504T12Z_MSC_CAPS_WindV_IsbL-0700_RLatLon0.03_PT017H.grib2 2026-05-04 18:15 1.3M
20260504T12Z_MSC_CAPS_WindV_IsbL-0750_RLatLon0.03_PT017H.grib2 2026-05-04 18:15 1.4M
20260504T12Z_MSC_CAPS_WindV_IsbL-0800_RLatLon0.03_PT017H.grib2 2026-05-04 18:15 1.5M
20260504T12Z_MSC_CAPS_WindV_IsbL-0850_RLatLon0.03_PT017H.grib2 2026-05-04 18:15 1.5M
20260504T12Z_MSC_CAPS_WindV_IsbL-0875_RLatLon0.03_PT017H.grib2 2026-05-04 18:15 1.6M
20260504T12Z_MSC_CAPS_WindV_IsbL-0900_RLatLon0.03_PT017H.grib2 2026-05-04 18:15 1.3M
20260504T12Z_MSC_CAPS_WindV_IsbL-0925_RLatLon0.03_PT017H.grib2 2026-05-04 18:15 1.3M
20260504T12Z_MSC_CAPS_WindV_IsbL-0950_RLatLon0.03_PT017H.grib2 2026-05-04 18:15 1.4M
20260504T12Z_MSC_CAPS_WindV_IsbL-0970_RLatLon0.03_PT017H.grib2 2026-05-04 18:15 1.4M
20260504T12Z_MSC_CAPS_WindV_IsbL-0985_RLatLon0.03_PT017H.grib2 2026-05-04 18:15 1.5M
20260504T12Z_MSC_CAPS_WindV_IsbL-1000_RLatLon0.03_PT017H.grib2 2026-05-04 18:15 1.9M
20260504T12Z_MSC_CAPS_WindV_IsbL-1015_RLatLon0.03_PT017H.grib2 2026-05-04 18:15 2.0M